Location: Lombard
(41.8800°N, 88.0080°W)
Time: 07:43:50
(UTC-06:00)

Vanguard 2 Rocket - All Passes

Search period start: 27 January 2023 00:00
Search period end: 06 February 2023 00:00
Orbit: 556 x 3318 km, 32.9° (Epoch: 26 January)

Date Brightness Start Highest point End Pass type
(mag) Time Alt. Az. Time Alt. Az. Time Alt. Az.
27 Jan - 13:25:24 10° SW 13:28:59 27° SSE 13:33:39 10° ESE daylight
27 Jan - 15:36:48 10° WSW 15:41:25 31° S 15:48:29 10° SE daylight
27 Jan - 17:49:38 10° WSW 17:54:50 20° SSW 18:02:06 10° SSE visible
28 Jan - 12:26:07 10° SW 12:29:10 21° SSE 12:32:38 10° ESE daylight
28 Jan - 14:37:17 10° WSW 14:41:18 31° S 14:47:04 10° ESE daylight
28 Jan - 16:49:30 10° WSW 16:54:14 22° SSW 17:01:03 10° SSE daylight
29 Jan - 11:26:59 10° SSW 11:29:21 15° SSE 11:31:46 10° SE daylight
29 Jan - 13:37:46 10° WSW 13:41:21 28° S 13:45:57 10° ESE daylight
29 Jan - 15:49:40 10° WSW 15:53:53 24° S 15:59:55 10° SE daylight
29 Jan - 18:04:31 10° SW 18:07:20 12° SSW 18:10:37 10° S visible
30 Jan - 10:28:20 10° S 10:29:27 11° SSE 10:30:33 10° SE daylight
30 Jan - 12:38:14 10° SW 12:41:29 24° S 12:45:11 10° ESE daylight
30 Jan - 14:49:58 10° WSW 14:53:44 25° S 14:58:52 10° SE daylight
30 Jan - 17:03:22 10° SW 17:06:44 14° SSW 17:10:57 10° S daylight
31 Jan - 11:38:36 10° SW 11:41:38 20° S 11:44:41 10° ESE daylight
31 Jan - 13:50:18 10° WSW 13:53:43 25° S 13:58:03 10° SE daylight
31 Jan - 16:02:59 10° SW 16:06:20 16° SSW 16:10:38 10° SSE daylight
01 Feb - 10:38:53 10° SSW 10:41:45 17° SSE 10:44:22 10° SE daylight
01 Feb - 12:50:33 10° WSW 12:53:50 25° S 12:57:30 10° ESE daylight
01 Feb - 15:02:57 10° WSW 15:06:08 18° SSW 15:10:11 10° SSE daylight
02 Feb - 09:39:09 10° SSW 09:41:46 14° SSE 09:44:02 10° SE daylight
02 Feb - 11:50:39 10° SW 11:53:57 23° S 11:57:14 10° ESE daylight
02 Feb - 14:03:02 10° WSW 14:06:05 20° S 14:09:48 10° SE daylight
03 Feb - 08:39:36 10° S 08:41:37 12° SSE 08:43:25 10° SE daylight
03 Feb - 10:50:31 10° SW 10:54:05 22° S 10:57:12 10° ESE daylight
03 Feb - 13:03:03 10° WSW 13:06:10 22° S 13:09:34 10° SE daylight
03 Feb - 15:16:56 10° SW 15:18:32 11° SSW 15:20:18 10° S daylight
04 Feb - 09:50:09 10° SW 09:54:06 20° S 09:57:17 10° ESE daylight
04 Feb - 12:02:55 10° WSW 12:06:17 24° S 12:09:32 10° SE daylight
04 Feb - 14:16:14 10° SW 14:18:26 14° SSW 14:20:54 10° SSE daylight
05 Feb - 08:49:37 10° SSW 08:54:00 19° SSE 08:57:23 10° ESE daylight
05 Feb - 11:02:31 10° WSW 11:06:24 25° S 11:09:42 10° ESE daylight
05 Feb - 13:15:49 10° SW 13:18:27 17° SSW 13:21:15 10° SSE daylight
